Paris Le Bourget, France

5:29 PM CEST on September 24, 2017 (GMT +0200)
Le Bourget

Weather History for LFPB - November, 2013

Change the Weather History Date:

Saturday, November 16, 2013

  Actual Average Record
Temperature  
Mean Temperature 38 °F -  
Max Temperature 42 °F 46 °F 62 °F (2006)
Min Temperature 35 °F 37 °F 26 °F (1999)
Degree Days  
Heating Degree Days 26    
Moisture  
Dew Point 36 °F    
Average Humidity 92    
Maximum Humidity 100    
Minimum Humidity 81    
Precipitation  
Precipitation 0.00 in 0.07 in - ()
Sea Level Pressure  
Sea Level Pressure 30.42 in    
Wind  
Wind Speed 6 mph ()    
Max Wind Speed 10 mph    
Max Gust Speed -    
Visibility 3.7 miles    
Events Fog    
Averages and records for this station are not official NWS values.
T = Trace of Precipitation, MM = Missing Value Source: Averaged Metar Reports

Daily Weather History Graph

Daily Weather History Graph

Search for Another Location

Airport or City:

Trip Planner

Search our weather history database for the weather conditions in past years. The results will help you decide how hot, cold, wet, or windy it might be!

Date:

Astronomy

Nov. 16, 2013 Rise Set
Actual Time 8:01 AM CET 5:08 PM CET
Civil Twilight 7:26 AM CET 5:43 PM CET
Nautical Twilight 6:47 AM CET 6:21 PM CET
Astronomical Twilight 6:10 AM CET 6:58 PM CET
Moon 4:37 PM CET (11/16) 6:36 AM CET (11/16)
Length of Visible Light 10h 16m
Length of Day
9h 07m
Waxing Gibbous, 99% of the Moon is Illuminated
Nov 16
Waxing Gibbous
Nov 17
Full
Nov 25
Last Quarter
Dec 3
New
Dec 9
First Quarter

Hourly Weather History & Observations

Time (CET) Temp. Windchill Dew Point Humidity Pressure Visibility Wind Dir Wind Speed Gust Speed Precip Events Conditions
12:00 AM 42.8 °F 37.5 °F 39.2 °F 87% 30.42 in 5.6 mi NNE 9.2 mph - N/A   Unknown
12:30 AM 41.0 °F 34.7 °F 37.4 °F 87% 30.42 in 5.6 mi NNE 10.4 mph - N/A   Unknown
1:00 AM 41.0 °F 35.8 °F 37.4 °F 87% 30.42 in 5.0 mi North 8.1 mph - N/A   Unknown
1:30 AM 41.0 °F 35.8 °F 37.4 °F 87% 30.42 in 4.3 mi North 8.1 mph - N/A   Unknown
2:00 AM 41.0 °F 35.8 °F 37.4 °F 87% 30.42 in 3.7 mi NNE 8.1 mph - N/A   Unknown
2:30 AM 39.2 °F 35.0 °F 37.4 °F 93% 30.42 in 3.1 mi North 5.8 mph - N/A   Mist
3:00 AM 39.2 °F 35.0 °F 37.4 °F 93% 30.45 in 3.1 mi North 5.8 mph - N/A   Mist
3:30 AM 37.4 °F 34.9 °F 37.4 °F 100% 30.45 in - Variable 3.5 mph - N/A   Mist
4:00 AM 37.4 °F - 35.6 °F 93% 30.45 in - Calm Calm - N/A   Mist
4:30 AM 37.4 °F 34.9 °F 35.6 °F 93% 30.42 in - NNE 3.5 mph - N/A   Mist
5:00 AM 35.6 °F - 35.6 °F 100% 30.42 in 1.8 mi NNE 1.2 mph - N/A   Mist
5:30 AM 35.6 °F 31.7 °F 35.6 °F 100% 30.42 in - North 4.6 mph - N/A   Mist
6:00 AM 37.4 °F 33.8 °F 35.6 °F 93% 30.42 in 2.2 mi NNE 4.6 mph - N/A   Mist
6:30 AM 35.6 °F 31.7 °F 35.6 °F 100% 30.45 in 1.5 mi North 4.6 mph - N/A Fog Patches of Fog
7:00 AM 35.6 °F - 35.6 °F 100% 30.45 in 0.1 mi Variable 2.3 mph - N/A Fog Fog
7:30 AM 35.6 °F 30.7 °F 35.6 °F 100% 30.45 in 0.2 mi NNE 5.8 mph - N/A Fog Fog
8:00 AM 35.6 °F 30.7 °F 35.6 °F 100% 30.45 in 0.2 mi NNE 5.8 mph - N/A Fog Fog
8:30 AM 35.6 °F 31.7 °F 35.6 °F 100% 30.45 in 0.2 mi North 4.6 mph - N/A Fog Fog
9:00 AM 35.6 °F 31.7 °F 35.6 °F 100% 30.48 in 0.3 mi NNE 4.6 mph - N/A Fog Fog
9:30 AM 37.4 °F 32.8 °F 37.4 °F 100% 30.48 in 1.1 mi NNE 5.8 mph - N/A Fog Patches of Fog
10:00 AM 37.4 °F 32.1 °F 37.4 °F 100% 30.48 in - NNE 6.9 mph - N/A   Overcast
10:30 AM 37.4 °F 32.1 °F 37.4 °F 100% 30.48 in 2.8 mi NNE 6.9 mph - N/A   Overcast
11:00 AM 37.4 °F 31.4 °F 35.6 °F 93% 30.48 in 3.1 mi NNE 8.1 mph - N/A   Overcast
11:30 AM 37.4 °F 31.4 °F 35.6 °F 93% 30.48 in 3.1 mi NNE 8.1 mph - N/A   Overcast
12:00 PM 37.4 °F 31.4 °F 35.6 °F 93% 30.45 in 3.7 mi NNE 8.1 mph - N/A   Overcast
12:30 PM 37.4 °F 31.4 °F 35.6 °F 93% 30.45 in 3.7 mi North 8.1 mph - N/A   Overcast
1:00 PM 39.2 °F 34.2 °F 37.4 °F 93% 30.45 in 4.3 mi NNE 6.9 mph - N/A   Overcast
1:30 PM 37.4 °F 32.8 °F 35.6 °F 93% 30.45 in 4.3 mi NNE 5.8 mph - N/A   Overcast
2:00 PM 39.2 °F 35.0 °F 35.6 °F 87% 30.42 in 6.2 mi NE 5.8 mph - N/A   Overcast
2:30 PM 39.2 °F 34.2 °F 35.6 °F 87% 30.42 in 6.2 mi NNE 6.9 mph - N/A   Overcast
3:00 PM 39.2 °F 34.2 °F 35.6 °F 87% 30.42 in 6.2 mi NNE 6.9 mph - N/A   Overcast
3:30 PM 39.2 °F 33.6 °F 33.8 °F 81% 30.39 in 6.2 mi NNE 8.1 mph - N/A   Overcast
4:00 PM 39.2 °F 34.2 °F 33.8 °F 81% 30.39 in 5.6 mi NNE 6.9 mph - N/A   Mostly Cloudy
4:30 PM 39.2 °F 34.2 °F 35.6 °F 87% 30.39 in 5.6 mi NE 6.9 mph - N/A   Mostly Cloudy
5:00 PM 39.2 °F 33.6 °F 33.8 °F 81% 30.39 in 5.0 mi North 8.1 mph - N/A   Overcast
5:30 PM 39.2 °F 35.0 °F 33.8 °F 81% 30.39 in 5.0 mi North 5.8 mph - N/A   Overcast
6:00 PM 37.4 °F 31.4 °F 33.8 °F 87% 30.39 in 4.3 mi NNE 8.1 mph - N/A   Overcast
6:30 PM 37.4 °F 32.8 °F 33.8 °F 87% 30.39 in 4.3 mi ENE 5.8 mph - N/A   Overcast
7:00 PM 37.4 °F 32.1 °F 33.8 °F 87% 30.39 in 4.3 mi ENE 6.9 mph - N/A   Overcast
7:30 PM 37.4 °F 31.4 °F 35.6 °F 93% 30.39 in 4.3 mi ENE 8.1 mph - N/A   Overcast
8:00 PM 37.4 °F 31.4 °F 35.6 °F 93% 30.39 in 4.3 mi ENE 8.1 mph - N/A   Overcast
8:30 PM 37.4 °F 33.8 °F 35.6 °F 93% 30.39 in 4.3 mi ENE 4.6 mph - N/A   Overcast
9:00 PM 39.2 °F 37.0 °F 35.6 °F 87% 30.36 in 4.3 mi NE 3.5 mph - N/A   Overcast
9:30 PM 39.2 °F - 35.6 °F 87% 30.36 in 3.7 mi Variable 2.3 mph - N/A   Overcast
10:00 PM 39.2 °F - 35.6 °F 87% 30.36 in 3.7 mi Variable 2.3 mph - N/A   Overcast
10:30 PM 39.2 °F - 35.6 °F 87% 30.36 in 3.7 mi NNE 2.3 mph - N/A   Overcast
11:00 PM 39.2 °F 35.9 °F 35.6 °F 87% 30.36 in 3.7 mi North 4.6 mph - N/A   Overcast
11:30 PM 39.2 °F 35.9 °F 35.6 °F 87% 30.36 in 3.7 mi North 4.6 mph - N/A   Overcast